Back to catalog

NOAA 16 DEB

AliveSSO
NORAD 41211·DEBRIS·🇺🇸 United States

Launched Sep 21, 2000 from Vandenberg Space Force Base

Loading…

Next Passes (next 24 hours)

TLE

FreshSource: Space-Track

Epoch: Sep 14, 2026, 08:44 UTC

1 41211U 00055DQ  26257.36393734  .00001653  00000-0  76995-3 0  9993
2 41211  98.6713 305.6949 0025294 209.7754 150.1985 14.21691437554985

Track NOAA 16 DEB in real time with AllMySat

Download on the App Store